Location: Petruro
(41.0333°N, 14.7833°E)
Time: 16:42:54
(UTC+00:00)

Cosmos 2292 Rocket - Pass Details

Date: 20 June 2021
Orbit: 381 x 1445 km, 83.0° (Epoch: 30 July)

Event Time Altitude Azimuth Distance (km) Brightness Sun altitude
Exits shadow 02:09:43 17° 260° (W) 1,091 4.4 -12.3°
Maximum altitude 02:10:35 19° 283° (WNW) 1,011 4.4 -12.2°
Drops below altitude 10° 02:12:46 10° 331° (NNW) 1,410 5.6 -11.9°
Sets 02:15:10 0° 352° (N) 2,300 7.1 -11.6°
